Time,TemperatureF,DewpointF,PressureIn,WindDirection,WindDirectionDegrees,WindSpeedMPH,WindSpeedGustMPH,Humidity,HourlyPrecipIn,Conditions,Clouds,dailyrainin,SoftwareType,DateUTC
2013-02-07 00:00:00,45.8,44.5,30.33,ENE,75,0.0,0.0,95,0.00,,CLR,0.00,VWS V14.01,2013-02-07 05:00:00,
2013-02-07 00:01:00,45.8,44.5,30.33,ENE,75,0.0,0.0,95,0.00,,CLR,0.00,VWS V14.01,2013-02-07 05:01:00,
2013-02-07 00:02:00,45.7,44.3,30.33,ENE,75,0.0,0.0,95,0.00,,CLR,0.00,VWS V14.01,2013-02-07 05:02:00,
2013-02-07 00:08:00,45.5,44.2,30.33,ENE,75,0.0,0.0,95,0.00,,CLR,0.00,VWS V14.01,2013-02-07 05:08:00,
2013-02-07 00:13:00,45.5,44.2,30.33,ENE,75,0.0,0.0,95,0.00,,CLR,0.00,VWS V14.01,2013-02-07 05:13:00,
2013-02-07 00:18:00,45.2,43.9,30.33,ENE,75,0.0,0.0,95,0.00,,CLR,0.00,VWS V14.01,2013-02-07 05:18:00,
2013-02-07 00:23:00,45.2,43.9,30.33,ENE,75,0.0,0.0,95,0.00,,CLR,0.00,VWS V14.01,2013-02-07 05:23:00,
2013-02-07 00:28:00,45.2,43.9,30.33,ENE,75,0.0,0.0,95,0.00,,CLR,0.00,VWS V14.01,2013-02-07 05:28:00,
2013-02-07 00:33:00,45.2,43.9,30.33,ENE,75,0.0,0.0,95,0.00,,CLR,0.00,VWS V14.01,2013-02-07 05:33:00,
2013-02-07 00:38:00,45.4,44.0,30.33,ENE,75,0.0,0.0,95,0.00,,CLR,0.00,VWS V14.01,2013-02-07 05:38:00,
2013-02-07 00:43:00,45.2,43.9,30.33,ENE,75,0.0,0.0,95,0.00,,CLR,0.00,VWS V14.01,2013-02-07 05:43:00,
2013-02-07 00:48:00,45.1,43.8,30.33,ENE,75,0.0,0.0,95,0.00,,CLR,0.00,VWS V14.01,2013-02-07 05:48:00,
2013-02-07 00:53:00,44.9,43.6,30.33,ENE,75,0.0,0.0,95,0.00,,CLR,0.00,VWS V14.01,2013-02-07 05:53:00,
2013-02-07 00:58:00,44.8,43.5,30.33,ENE,75,0.0,0.0,95,0.00,,CLR,0.00,VWS V14.01,2013-02-07 05:58:00,
2013-02-07 01:03:00,45.1,43.8,30.33,ENE,75,0.0,0.0,95,0.00,,,0.00,VWS V14.01,2013-02-07 06:03:00,
2013-02-07 01:08:00,45.2,43.9,30.33,ENE,75,0.0,0.0,95,0.00,,,0.00,VWS V14.01,2013-02-07 06:08:00,
2013-02-07 01:13:00,45.2,44.1,30.33,ENE,75,0.0,0.0,96,0.00,,,0.00,VWS V14.01,2013-02-07 06:13:00,
2013-02-07 01:18:00,45.4,44.3,30.32,ENE,75,0.0,0.0,96,0.00,,,0.00,VWS V14.01,2013-02-07 06:18:00,
2013-02-07 01:23:00,45.4,44.3,30.32,ENE,75,0.0,0.0,96,0.00,,,0.00,VWS V14.01,2013-02-07 06:23:00,
2013-02-07 01:29:00,45.2,43.9,30.32,ENE,75,0.0,0.0,95,0.00,,,0.00,VWS V14.01,2013-02-07 06:29:00,
2013-02-07 01:34:00,45.1,43.8,30.32,ENE,75,0.0,0.0,95,0.00,,,0.00,VWS V14.01,2013-02-07 06:34:00,
2013-02-07 01:39:00,44.9,43.8,30.32,ENE,75,0.0,0.0,96,0.00,,,0.00,VWS V14.01,2013-02-07 06:39:00,
2013-02-07 01:44:00,44.8,43.7,30.32,ENE,75,0.0,0.0,96,0.00,,,0.00,VWS V14.01,2013-02-07 06:44:00,
2013-02-07 01:49:00,44.8,43.7,30.32,ENE,75,0.0,0.0,96,0.00,,,0.00,VWS V14.01,2013-02-07 06:49:00,
2013-02-07 01:54:00,44.8,43.7,30.32,ENE,75,0.0,0.0,96,0.00,,,0.00,VWS V14.01,2013-02-07 06:54:00,
2013-02-07 01:59:00,44.8,43.7,30.32,ENE,75,0.0,0.0,96,0.00,,,0.00,VWS V14.01,2013-02-07 06:59:00,
2013-02-07 02:04:00,44.8,43.7,30.32,ENE,75,0.0,0.0,96,0.00,,,0.00,VWS V14.01,2013-02-07 07:04:00,
2013-02-07 02:09:00,44.8,43.7,30.32,ENE,75,0.0,0.0,96,0.00,,,0.00,VWS V14.01,2013-02-07 07:09:00,
2013-02-07 02:14:00,44.8,43.7,30.32,ENE,75,0.0,0.0,96,0.00,,,0.00,VWS V14.01,2013-02-07 07:14:00,
2013-02-07 02:19:00,44.8,43.7,30.32,ENE,75,0.0,0.0,96,0.00,,,0.00,VWS V14.01,2013-02-07 07:19:00,
2013-02-07 02:24:00,44.6,43.5,30.32,ENE,75,0.0,0.0,96,0.00,,,0.00,VWS V14.01,2013-02-07 07:24:00,
2013-02-07 02:29:00,44.6,43.5,30.32,ENE,75,0.0,0.0,96,0.00,,,0.00,VWS V14.01,2013-02-07 07:29:00,
2013-02-07 02:34:00,44.5,43.4,30.32,ENE,75,0.0,0.0,96,0.00,,,0.00,VWS V14.01,2013-02-07 07:34:00,
2013-02-07 02:39:00,44.5,43.4,30.32,ENE,75,0.0,0.0,96,0.00,,,0.00,VWS V14.01,2013-02-07 07:39:00,
2013-02-07 02:44:00,44.3,43.2,30.32,ENE,75,0.0,0.0,96,0.00,,,0.00,VWS V14.01,2013-02-07 07:44:00,
2013-02-07 02:50:00,44.2,43.1,30.31,ENE,75,0.0,0.0,96,0.00,,,0.00,VWS V14.01,2013-02-07 07:50:00,
2013-02-07 02:55:00,43.9,42.8,30.31,ENE,75,0.0,0.0,96,0.00,,,0.00,VWS V14.01,2013-02-07 07:55:00,
2013-02-07 03:00:00,43.9,42.8,30.31,ENE,75,0.0,0.0,96,0.00,,,0.00,VWS V14.01,2013-02-07 08:00:00,
2013-02-07 03:05:00,43.8,42.7,30.31,ENE,75,0.0,0.0,96,0.00,,,0.00,VWS V14.01,2013-02-07 08:05:00,
2013-02-07 03:10:00,43.9,42.8,30.31,ENE,75,0.0,0.0,96,0.00,,,0.00,VWS V14.01,2013-02-07 08:10:00,
2013-02-07 03:15:00,44.2,43.4,30.31,ENE,75,0.0,0.0,97,0.00,,,0.00,VWS V14.01,2013-02-07 08:15:00,
2013-02-07 03:20:00,44.5,43.7,30.30,ENE,75,0.0,0.0,97,0.00,,,0.00,VWS V14.01,2013-02-07 08:20:00,
2013-02-07 03:25:00,44.5,43.7,30.30,ENE,75,0.0,0.0,97,0.00,,,0.00,VWS V14.01,2013-02-07 08:25:00,
2013-02-07 03:30:00,45.1,44.3,30.30,ENE,75,0.0,0.0,97,0.00,,,0.00,VWS V14.01,2013-02-07 08:30:00,
2013-02-07 03:35:00,45.4,44.6,30.31,ENE,75,0.0,0.0,97,0.00,,,0.00,VWS V14.01,2013-02-07 08:35:00,
2013-02-07 03:40:00,45.4,44.6,30.31,ENE,75,0.0,0.0,97,0.00,,,0.00,VWS V14.01,2013-02-07 08:40:00,
2013-02-07 03:45:00,45.2,44.4,30.31,ENE,75,0.0,0.0,97,0.00,,,0.00,VWS V14.01,2013-02-07 08:45:00,
2013-02-07 03:50:00,45.1,44.3,30.31,ENE,75,0.0,0.0,97,0.00,,,0.00,VWS V14.01,2013-02-07 08:50:00,
2013-02-07 03:55:00,44.9,44.1,30.31,ENE,75,0.0,0.0,97,0.00,,,0.00,VWS V14.01,2013-02-07 08:55:00,
2013-02-07 04:00:00,44.8,44.0,30.31,ENE,75,0.0,0.0,97,0.00,,,0.00,VWS V14.01,2013-02-07 09:00:00,
2013-02-07 04:05:00,44.6,43.8,30.31,ENE,75,0.0,0.0,97,0.00,,SCT060,0.00,VWS V14.01,2013-02-07 09:05:00,
2013-02-07 04:10:00,44.5,43.7,30.31,ENE,75,0.0,0.0,97,0.00,,SCT060,0.00,VWS V14.01,2013-02-07 09:10:00,
2013-02-07 04:15:00,44.3,43.5,30.31,ENE,75,0.0,0.0,97,0.00,,SCT060,0.00,VWS V14.01,2013-02-07 09:15:00,
2013-02-07 04:20:00,44.3,43.5,30.31,ENE,75,0.0,0.0,97,0.00,,SCT060,0.00,VWS V14.01,2013-02-07 09:20:00,
2013-02-07 04:25:00,44.3,43.5,30.31,ENE,75,0.0,0.0,97,0.00,,SCT060,0.00,VWS V14.01,2013-02-07 09:25:00,
2013-02-07 04:30:00,44.3,43.5,30.31,ENE,75,0.0,0.0,97,0.00,,SCT060,0.00,VWS V14.01,2013-02-07 09:30:00,
2013-02-07 04:36:00,44.3,43.5,30.31,ENE,75,0.0,0.0,97,0.00,,SCT060,0.00,VWS V14.01,2013-02-07 09:36:00,
2013-02-07 04:41:00,44.2,43.4,30.31,ENE,75,0.0,0.0,97,0.00,,SCT060,0.00,VWS V14.01,2013-02-07 09:41:00,
2013-02-07 04:46:00,44.2,43.4,30.31,ENE,75,0.0,0.0,97,0.00,,SCT060,0.00,VWS V14.01,2013-02-07 09:46:00,
2013-02-07 04:51:00,44.2,43.4,30.31,ENE,75,0.0,0.0,97,0.00,,SCT060,0.00,VWS V14.01,2013-02-07 09:51:00,
2013-02-07 04:56:00,44.1,43.3,30.31,ENE,75,0.0,0.0,97,0.00,,SCT060,0.00,VWS V14.01,2013-02-07 09:56:00,
2013-02-07 05:01:00,43.9,43.1,30.31,ENE,75,0.0,0.0,97,0.00,,,0.00,VWS V14.01,2013-02-07 10:01:00,
2013-02-07 05:06:00,44.1,43.3,30.31,ENE,75,0.0,0.0,97,0.00,,,0.00,VWS V14.01,2013-02-07 10:06:00,
2013-02-07 05:11:00,44.1,43.3,30.31,ENE,75,0.0,0.0,97,0.00,,,0.00,VWS V14.01,2013-02-07 10:11:00,
2013-02-07 05:16:00,44.2,43.4,30.31,ENE,75,0.0,0.0,97,0.00,,,0.00,VWS V14.01,2013-02-07 10:16:00,
2013-02-07 05:21:00,44.3,43.5,30.32,ENE,75,0.0,0.0,97,0.00,,,0.00,VWS V14.01,2013-02-07 10:21:00,
2013-02-07 05:26:00,44.6,43.8,30.32,ENE,75,0.0,0.0,97,0.00,,,0.00,VWS V14.01,2013-02-07 10:26:00,
2013-02-07 05:31:00,45.1,44.6,30.32,ENE,75,0.0,0.0,98,0.00,,,0.00,VWS V14.01,2013-02-07 10:31:00,
2013-02-07 05:36:00,46.1,45.6,30.32,ENE,75,0.0,0.0,98,0.00,,,0.00,VWS V14.01,2013-02-07 10:36:00,
2013-02-07 05:41:00,47.0,46.5,30.32,ENE,75,0.0,0.0,98,0.00,,,0.00,VWS V14.01,2013-02-07 10:41:00,
2013-02-07 05:46:00,47.7,47.2,30.32,North,9,0.0,0.0,98,0.00,,,0.00,VWS V14.01,2013-02-07 10:46:00,
2013-02-07 05:51:00,48.2,47.7,30.31,North,9,0.0,0.0,98,0.00,,,0.00,VWS V14.01,2013-02-07 10:51:00,
2013-02-07 05:56:00,48.3,47.8,30.31,North,9,0.0,0.0,98,0.00,,,0.00,VWS V14.01,2013-02-07 10:56:00,
2013-02-07 06:01:00,48.5,48.0,30.31,North,9,0.0,0.0,98,0.00,,SCT075,0.00,VWS V14.01,2013-02-07 11:01:00,
2013-02-07 06:06:00,48.6,48.1,30.31,North,9,0.0,0.0,98,0.00,,SCT075,0.00,VWS V14.01,2013-02-07 11:06:00,
2013-02-07 06:11:00,48.6,48.1,30.31,North,9,0.0,0.0,98,0.00,,SCT075,0.00,VWS V14.01,2013-02-07 11:11:00,
2013-02-07 06:16:00,48.8,48.3,30.32,North,9,0.0,0.0,98,0.00,,SCT075,0.00,VWS V14.01,2013-02-07 11:16:00,
2013-02-07 06:21:00,49.1,48.6,30.32,North,9,0.0,0.0,98,0.00,,SCT075,0.00,VWS V14.01,2013-02-07 11:21:00,
2013-02-07 06:27:00,49.1,48.6,30.32,North,9,0.0,0.0,98,0.00,,SCT075,0.00,VWS V14.01,2013-02-07 11:27:00,
2013-02-07 06:32:00,49.4,48.9,30.32,North,7,0.0,0.0,98,0.00,,SCT075,0.00,VWS V14.01,2013-02-07 11:32:00,
2013-02-07 06:37:00,49.5,49.0,30.32,North,7,0.0,0.0,98,0.00,,SCT075,0.00,VWS V14.01,2013-02-07 11:37:00,
2013-02-07 06:42:00,49.5,49.0,30.32,North,7,0.0,0.0,98,0.00,,SCT075,0.00,VWS V14.01,2013-02-07 11:42:00,
2013-02-07 06:47:00,49.6,49.1,30.32,North,7,0.0,0.0,98,0.00,,SCT075,0.00,VWS V14.01,2013-02-07 11:47:00,
2013-02-07 06:52:00,49.6,49.1,30.32,North,7,0.0,0.0,98,0.00,,SCT075,0.00,VWS V14.01,2013-02-07 11:52:00,
2013-02-07 06:57:00,49.5,49.0,30.32,North,7,0.0,0.0,98,0.00,,SCT075,0.00,VWS V14.01,2013-02-07 11:57:00,
2013-02-07 07:02:00,49.5,48.7,30.32,North,8,0.0,0.0,97,0.00,,BKN250,0.00,VWS V14.01,2013-02-07 12:02:00,
2013-02-07 07:07:00,49.5,49.0,30.32,North,8,0.0,0.0,98,0.00,,BKN250,0.00,VWS V14.01,2013-02-07 12:07:00,
2013-02-07 07:12:00,49.8,49.3,30.32,North,8,0.0,0.0,98,0.00,,BKN250,0.00,VWS V14.01,2013-02-07 12:12:00,
2013-02-07 07:17:00,49.8,49.3,30.32,North,8,0.0,0.0,98,0.00,,BKN250,0.00,VWS V14.01,2013-02-07 12:17:00,
2013-02-07 07:22:00,49.9,49.1,30.32,North,8,0.0,0.0,97,0.00,,BKN250,0.00,VWS V14.01,2013-02-07 12:22:00,
2013-02-07 07:27:00,49.9,49.1,30.32,North,8,0.0,0.0,97,0.00,,BKN250,0.00,VWS V14.01,2013-02-07 12:27:00,
2013-02-07 07:32:00,50.1,49.3,30.32,North,8,0.0,0.0,97,0.00,,BKN250,0.00,VWS V14.01,2013-02-07 12:32:00,
2013-02-07 07:37:00,50.1,49.3,30.32,North,8,0.0,0.0,97,0.00,,BKN250,0.00,VWS V14.01,2013-02-07 12:37:00,
2013-02-07 07:42:00,50.2,49.4,30.32,North,8,0.0,0.0,97,0.00,,BKN250,0.00,VWS V14.01,2013-02-07 12:42:00,
2013-02-07 07:47:00,50.4,49.6,30.32,North,8,0.0,0.0,97,0.00,,BKN250,0.00,VWS V14.01,2013-02-07 12:47:00,
2013-02-07 07:52:00,50.5,49.7,30.32,North,6,0.0,0.0,97,0.00,,BKN250,0.00,VWS V14.01,2013-02-07 12:52:00,
2013-02-07 07:57:00,50.8,50.0,30.32,North,6,0.0,0.0,97,0.00,,BKN250,0.00,VWS V14.01,2013-02-07 12:57:00,
2013-02-07 08:02:00,51.0,50.2,30.31,NW,325,0.0,0.0,97,0.00,,OVC250,0.00,VWS V14.01,2013-02-07 13:02:00,
2013-02-07 08:07:00,51.3,50.5,30.31,NNW,335,0.0,2.0,97,0.00,,OVC250,0.00,VWS V14.01,2013-02-07 13:07:00,
2013-02-07 08:12:00,51.6,50.5,30.31,NNW,335,0.0,0.0,96,0.00,,OVC250,0.00,VWS V14.01,2013-02-07 13:12:00,
2013-02-07 08:17:00,51.7,50.6,30.32,NNW,335,0.0,0.0,96,0.00,,OVC250,0.00,VWS V14.01,2013-02-07 13:17:00,
2013-02-07 08:22:00,51.9,50.8,30.32,NNW,335,0.0,0.0,96,0.00,,OVC250,0.00,VWS V14.01,2013-02-07 13:22:00,
2013-02-07 08:27:00,52.2,51.1,30.32,North,5,0.0,0.0,96,0.00,,OVC250,0.00,VWS V14.01,2013-02-07 13:27:00,
2013-02-07 08:32:00,52.3,50.9,30.31,North,6,0.0,0.0,95,0.00,,OVC250,0.00,VWS V14.01,2013-02-07 13:32:00,
2013-02-07 08:37:00,52.6,51.2,30.31,North,6,0.0,0.0,95,0.00,,OVC250,0.00,VWS V14.01,2013-02-07 13:37:00,
2013-02-07 08:42:00,52.9,51.5,30.31,NNE,18,0.0,0.0,95,0.00,,OVC250,0.00,VWS V14.01,2013-02-07 13:42:00,
2013-02-07 08:47:00,53.2,51.8,30.31,NNE,18,0.0,2.0,95,0.00,,OVC250,0.00,VWS V14.01,2013-02-07 13:47:00,
2013-02-07 08:52:00,53.3,51.6,30.31,NNE,21,0.0,0.0,94,0.00,,OVC250,0.00,VWS V14.01,2013-02-07 13:52:00,
2013-02-07 08:57:00,53.5,51.8,30.31,NW,323,0.0,0.0,94,0.00,,OVC250,0.00,VWS V14.01,2013-02-07 13:57:00,
2013-02-07 09:02:00,53.6,51.9,30.31,NW,323,0.0,0.0,94,0.00,,BKN120,0.00,VWS V14.01,2013-02-07 14:02:00,
2013-02-07 09:07:00,53.9,51.9,30.31,NNE,26,0.0,0.0,93,0.00,,BKN120,0.00,VWS V14.01,2013-02-07 14:07:00,
2013-02-07 09:12:00,54.1,52.1,30.31,ENE,58,0.0,0.0,93,0.00,,BKN120,0.00,VWS V14.01,2013-02-07 14:12:00,
2013-02-07 09:17:00,54.4,52.4,30.31,North,10,0.0,0.0,93,0.00,,BKN120,0.00,VWS V14.01,2013-02-07 14:17:00,
2013-02-07 09:22:00,54.5,52.2,30.31,North,9,0.0,0.0,92,0.00,,BKN120,0.00,VWS V14.01,2013-02-07 14:22:00,
2013-02-07 09:27:00,54.8,52.5,30.31,North,0,0.0,1.0,92,0.00,,BKN120,0.00,VWS V14.01,2013-02-07 14:27:00,
2013-02-07 09:32:00,55.0,52.4,30.30,NW,324,0.0,0.0,91,0.00,,BKN120,0.00,VWS V14.01,2013-02-07 14:32:00,
2013-02-07 09:37:00,55.3,52.7,30.30,NE,42,0.0,4.0,91,0.00,,BKN120,0.00,VWS V14.01,2013-02-07 14:37:00,
2013-02-07 09:42:00,55.6,53.0,30.30,NNE,26,0.0,0.0,91,0.00,,BKN120,0.00,VWS V14.01,2013-02-07 14:42:00,
2013-02-07 09:47:00,55.9,53.3,30.30,NNE,27,0.0,0.0,91,0.00,,BKN120,0.00,VWS V14.01,2013-02-07 14:47:00,
2013-02-07 09:52:00,56.0,53.1,30.30,North,358,0.0,0.0,90,0.00,,BKN120,0.00,VWS V14.01,2013-02-07 14:52:00,
2013-02-07 09:57:00,56.2,53.3,30.30,ENE,70,1.0,4.0,90,0.00,,BKN120,0.00,VWS V14.01,2013-02-07 14:57:00,
2013-02-07 10:02:00,56.5,53.3,30.30,North,0,0.0,0.0,89,0.00,,OVC200,0.00,VWS V14.01,2013-02-07 15:02:00,
2013-02-07 10:07:00,56.7,53.5,30.30,ESE,111,0.0,1.0,89,0.00,,OVC200,0.00,VWS V14.01,2013-02-07 15:07:00,
2013-02-07 10:12:00,57.0,53.8,30.30,NNE,15,0.0,1.0,89,0.00,,OVC200,0.00,VWS V14.01,2013-02-07 15:12:00,
2013-02-07 10:17:00,57.5,54.0,30.30,NNE,19,0.0,0.0,88,0.00,,OVC200,0.00,VWS V14.01,2013-02-07 15:17:00,
2013-02-07 10:22:00,58.0,54.5,30.30,NNE,30,0.0,0.0,88,0.00,,OVC200,0.00,VWS V14.01,2013-02-07 15:22:00,
2013-02-07 10:27:00,58.3,54.1,30.30,NNE,18,0.0,0.0,86,0.00,,OVC200,0.00,VWS V14.01,2013-02-07 15:27:00,
2013-02-07 10:32:00,58.6,54.1,30.29,West,276,1.0,1.0,85,0.00,,OVC200,0.00,VWS V14.01,2013-02-07 15:32:00,
2013-02-07 10:37:00,58.9,54.1,30.29,NNE,20,0.0,0.0,84,0.00,,OVC200,0.00,VWS V14.01,2013-02-07 15:37:00,
2013-02-07 10:42:00,59.2,54.4,30.29,North,4,0.0,0.0,84,0.00,,OVC200,0.00,VWS V14.01,2013-02-07 15:42:00,
2013-02-07 10:47:00,59.2,54.0,30.28,NE,43,1.0,1.0,83,0.00,,OVC200,0.00,VWS V14.01,2013-02-07 15:47:00,
2013-02-07 10:52:00,59.3,54.5,30.28,North,4,0.0,0.0,84,0.00,,OVC200,0.00,VWS V14.01,2013-02-07 15:52:00,
2013-02-07 10:57:00,59.6,54.4,30.28,NNE,24,1.0,3.0,83,0.00,,OVC200,0.00,VWS V14.01,2013-02-07 15:57:00,
2013-02-07 11:03:00,59.9,54.4,30.28,ESE,117,0.0,0.0,82,0.00,,OVC200,0.00,VWS V14.01,2013-02-07 16:03:00,
2013-02-07 11:08:00,60.2,54.7,30.28,NNE,27,0.0,1.0,82,0.00,,OVC200,0.00,VWS V14.01,2013-02-07 16:08:00,
2013-02-07 11:13:00,60.4,54.5,30.28,NNE,32,0.0,0.0,81,0.00,,OVC200,0.00,VWS V14.01,2013-02-07 16:13:00,
2013-02-07 11:18:00,60.4,54.5,30.27,NNE,22,3.0,4.0,81,0.00,,OVC200,0.00,VWS V14.01,2013-02-07 16:18:00,
2013-02-07 11:23:00,60.4,54.5,30.27,NNW,345,0.0,0.0,81,0.00,,OVC200,0.00,VWS V14.01,2013-02-07 16:23:00,
2013-02-07 11:28:00,60.4,54.5,30.27,NNW,346,0.0,1.0,81,0.00,,OVC200,0.00,VWS V14.01,2013-02-07 16:28:00,
2013-02-07 11:33:00,60.4,54.5,30.26,NNW,346,0.0,0.0,81,0.00,,OVC200,0.00,VWS V14.01,2013-02-07 16:33:00,
2013-02-07 11:38:00,60.5,54.7,30.26,NE,52,0.0,1.0,81,0.00,,OVC200,0.00,VWS V14.01,2013-02-07 16:38:00,
2013-02-07 11:43:00,60.5,54.7,30.26,ESE,123,0.0,1.0,81,0.00,,OVC200,0.00,VWS V14.01,2013-02-07 16:43:00,
2013-02-07 11:48:00,60.7,54.5,30.25,NNE,15,0.0,0.0,80,0.00,,OVC200,0.00,VWS V14.01,2013-02-07 16:48:00,
2013-02-07 11:53:00,60.9,55.0,30.25,ENE,70,0.0,0.0,81,0.00,,OVC200,0.00,VWS V14.01,2013-02-07 16:53:00,
2013-02-07 11:58:00,60.9,55.4,30.25,ENE,70,0.0,0.0,82,0.00,,OVC200,0.00,VWS V14.01,2013-02-07 16:58:00,
2013-02-07 12:03:00,60.9,55.7,30.25,NE,39,0.0,0.0,83,0.00,,-RA,0.00,VWS V14.01,2013-02-07 17:03:00,
2013-02-07 12:08:00,60.5,56.0,30.25,NE,38,0.0,0.0,85,0.01,,-RA,0.01,VWS V14.01,2013-02-07 17:08:00,
2013-02-07 12:13:00,60.4,55.9,30.25,NE,38,0.0,0.0,85,0.02,,-RA,0.02,VWS V14.01,2013-02-07 17:13:00,
2013-02-07 12:18:00,60.2,56.3,30.24,NE,38,0.0,0.0,87,0.02,,-RA,0.02,VWS V14.01,2013-02-07 17:18:00,
2013-02-07 12:23:00,59.9,56.0,30.24,NE,38,0.0,0.0,87,0.03,,-RA,0.03,VWS V14.01,2013-02-07 17:23:00,
2013-02-07 12:28:00,59.6,56.0,30.24,NE,38,0.0,0.0,88,0.04,,-RA,0.04,VWS V14.01,2013-02-07 17:28:00,
2013-02-07 12:33:00,59.5,56.3,30.24,NE,38,0.0,0.0,89,0.05,,-RA,0.05,VWS V14.01,2013-02-07 17:33:00,
2013-02-07 12:38:00,59.3,56.4,30.24,North,358,0.0,0.0,90,0.07,,-RA,0.07,VWS V14.01,2013-02-07 17:38:00,
2013-02-07 12:43:00,59.0,56.1,30.24,North,0,0.0,1.0,90,0.08,,-RA,0.08,VWS V14.01,2013-02-07 17:43:00,
2013-02-07 12:48:00,58.7,55.8,30.23,North,354,0.0,0.0,90,0.10,,-RA,0.10,VWS V14.01,2013-02-07 17:48:00,
2013-02-07 12:53:00,58.4,55.8,30.23,North,353,0.0,0.0,91,0.12,,-RA,0.12,VWS V14.01,2013-02-07 17:53:00,
2013-02-07 12:58:00,58.1,55.5,30.23,North,353,0.0,0.0,91,0.13,,-RA,0.13,VWS V14.01,2013-02-07 17:58:00,
2013-02-07 13:03:00,58.0,55.7,30.23,North,353,0.0,0.0,92,0.14,,-RA,0.14,VWS V14.01,2013-02-07 18:03:00,
2013-02-07 13:08:00,57.6,55.3,30.23,North,353,0.0,0.0,92,0.15,,-RA,0.16,VWS V14.01,2013-02-07 18:08:00,
2013-02-07 13:13:00,57.5,55.5,30.23,North,353,0.0,0.0,93,0.15,,-RA,0.17,VWS V14.01,2013-02-07 18:13:00,
2013-02-07 13:18:00,57.3,55.3,30.23,North,353,0.0,0.0,93,0.17,,-RA,0.19,VWS V14.01,2013-02-07 18:18:00,
2013-02-07 13:23:00,57.2,55.2,30.23,North,353,0.0,0.0,93,0.16,,-RA,0.19,VWS V14.01,2013-02-07 18:23:00,
2013-02-07 13:28:00,57.0,55.0,30.23,NW,308,0.0,0.0,93,0.17,,-RA,0.21,VWS V14.01,2013-02-07 18:28:00,
2013-02-07 13:33:00,56.9,55.2,30.22,NW,307,0.0,0.0,94,0.17,,-RA,0.22,VWS V14.01,2013-02-07 18:33:00,
2013-02-07 13:38:00,56.7,55.0,30.22,NW,314,0.0,0.0,94,0.16,,-RA,0.23,VWS V14.01,2013-02-07 18:38:00,
2013-02-07 13:44:00,56.7,55.0,30.22,NW,309,0.0,0.0,94,0.16,,-RA,0.24,VWS V14.01,2013-02-07 18:44:00,
2013-02-07 13:49:00,56.6,54.9,30.20,NW,309,0.0,0.0,94,0.15,,-RA,0.25,VWS V14.01,2013-02-07 18:49:00,
2013-02-07 13:54:00,56.6,54.9,30.20,NW,314,0.0,0.0,94,0.13,,-RA,0.25,VWS V14.01,2013-02-07 18:54:00,
2013-02-07 13:59:00,56.5,55.1,30.20,NNE,28,0.0,0.0,95,0.14,,-RA,0.27,VWS V14.01,2013-02-07 18:59:00,
2013-02-07 14:04:00,56.5,55.1,30.19,SW,230,0.0,0.0,95,0.13,,RA,0.27,VWS V14.01,2013-02-07 19:04:00,
2013-02-07 14:09:00,56.3,54.9,30.19,NW,315,0.0,0.0,95,0.13,,RA,0.29,VWS V14.01,2013-02-07 19:09:00,
2013-02-07 14:14:00,56.3,54.9,30.19,ENE,60,0.0,0.0,95,0.13,,RA,0.30,VWS V14.01,2013-02-07 19:14:00,
2013-02-07 14:19:00,56.2,54.8,30.19,NW,325,0.0,5.0,95,0.12,,RA,0.31,VWS V14.01,2013-02-07 19:19:00,
2013-02-07 14:24:00,56.2,54.8,30.19,NNW,335,0.0,0.0,95,0.13,,RA,0.32,VWS V14.01,2013-02-07 19:24:00,
2013-02-07 14:29:00,56.0,54.6,30.19,NW,326,0.0,7.0,95,0.12,,RA,0.33,VWS V14.01,2013-02-07 19:29:00,
2013-02-07 14:34:00,55.9,54.5,30.18,WNW,303,0.0,0.0,95,0.12,,RA,0.34,VWS V14.01,2013-02-07 19:34:00,
2013-02-07 14:39:00,55.9,54.5,30.18,NW,323,0.0,0.0,95,0.12,,RA,0.35,VWS V14.01,2013-02-07 19:39:00,
2013-02-07 14:44:00,55.7,54.3,30.18,NE,41,0.0,3.0,95,0.12,,RA,0.36,VWS V14.01,2013-02-07 19:44:00,
2013-02-07 14:49:00,55.7,54.3,30.17,ENE,58,0.0,2.0,95,0.12,,RA,0.37,VWS V14.01,2013-02-07 19:49:00,
2013-02-07 14:54:00,55.7,54.3,30.17,North,0,1.0,1.0,95,0.13,,RA,0.38,VWS V14.01,2013-02-07 19:54:00,
2013-02-07 14:59:00,55.7,54.3,30.17,West,274,1.0,1.0,95,0.13,,RA,0.39,VWS V14.01,2013-02-07 19:59:00,
2013-02-07 15:04:00,55.6,54.2,30.16,NNW,333,0.0,5.0,95,0.14,,RA,0.41,VWS V14.01,2013-02-07 20:04:00,
2013-02-07 15:09:00,55.6,54.2,30.16,NNE,18,0.0,5.0,95,0.14,,RA,0.42,VWS V14.01,2013-02-07 20:09:00,
2013-02-07 15:14:00,55.6,54.2,30.16,ENE,73,0.0,1.0,95,0.14,,RA,0.44,VWS V14.01,2013-02-07 20:14:00,
2013-02-07 15:19:00,55.4,54.0,30.16,NNE,25,2.0,2.0,95,0.14,,RA,0.45,VWS V14.01,2013-02-07 20:19:00,
2013-02-07 15:24:00,55.4,54.3,30.16,NE,54,0.0,0.0,96,0.14,,RA,0.46,VWS V14.01,2013-02-07 20:24:00,
2013-02-07 15:29:00,55.4,54.3,30.16,West,280,0.0,0.0,96,0.15,,RA,0.48,VWS V14.01,2013-02-07 20:29:00,
2013-02-07 15:34:00,55.4,54.3,30.15,NNW,341,0.0,0.0,96,0.15,,RA,0.49,VWS V14.01,2013-02-07 20:34:00,
2013-02-07 15:39:00,55.3,54.2,30.15,WNW,292,0.0,1.0,96,0.16,,RA,0.51,VWS V14.01,2013-02-07 20:39:00,
2013-02-07 15:44:00,55.3,54.2,30.15,ESE,106,0.0,0.0,96,0.17,,RA,0.53,VWS V14.01,2013-02-07 20:44:00,
2013-02-07 15:49:00,55.3,54.2,30.14,NW,314,0.0,1.0,96,0.18,,RA,0.55,VWS V14.01,2013-02-07 20:49:00,
2013-02-07 15:54:00,55.3,54.2,30.14,SSE,147,1.0,2.0,96,0.17,,RA,0.55,VWS V14.01,2013-02-07 20:54:00,
2013-02-07 15:59:00,55.3,54.2,30.14,NNE,28,0.0,2.0,96,0.18,,RA,0.57,VWS V14.01,2013-02-07 20:59:00,
2013-02-07 16:05:00,55.3,54.2,30.14,SSE,165,0.0,2.0,96,0.18,,RA,0.59,VWS V14.01,2013-02-07 21:05:00,
2013-02-07 16:10:00,55.3,54.2,30.14,ENE,70,0.0,0.0,96,0.19,,RA,0.61,VWS V14.01,2013-02-07 21:10:00,
2013-02-07 16:15:00,55.3,54.2,30.14,NE,46,0.0,1.0,96,0.19,,RA,0.63,VWS V14.01,2013-02-07 21:15:00,
2013-02-07 16:20:00,55.3,54.2,30.14,NW,316,0.0,0.0,96,0.19,,RA,0.64,VWS V14.01,2013-02-07 21:20:00,
2013-02-07 16:25:00,55.4,54.3,30.14,North,11,0.0,0.0,96,0.19,,RA,0.65,VWS V14.01,2013-02-07 21:25:00,
2013-02-07 16:30:00,55.4,54.6,30.14,North,11,0.0,0.0,97,0.18,,RA,0.66,VWS V14.01,2013-02-07 21:30:00,
2013-02-07 16:35:00,55.4,54.6,30.13,North,0,0.0,0.0,97,0.18,,RA,0.67,VWS V14.01,2013-02-07 21:35:00,
2013-02-07 16:40:00,55.6,54.8,30.13,ENE,70,0.0,0.0,97,0.16,,RA,0.67,VWS V14.01,2013-02-07 21:40:00,
2013-02-07 16:45:00,55.6,54.8,30.13,NW,307,0.0,0.0,97,0.16,,RA,0.69,VWS V14.01,2013-02-07 21:45:00,
2013-02-07 16:50:00,55.6,54.8,30.12,NW,315,0.0,0.0,97,0.18,,RA,0.73,VWS V14.01,2013-02-07 21:50:00,
2013-02-07 16:55:00,55.6,54.8,30.12,East,93,0.0,0.0,97,0.19,,RA,0.74,VWS V14.01,2013-02-07 21:55:00,
2013-02-07 17:00:00,55.6,54.8,30.12,North,8,0.0,0.0,97,0.19,,RA,0.75,VWS V14.01,2013-02-07 22:00:00,
2013-02-07 17:05:00,55.6,54.8,30.11,North,358,0.0,0.0,97,0.17,,-RA,0.76,VWS V14.01,2013-02-07 22:05:00,
2013-02-07 17:10:00,55.6,54.8,30.11,NW,314,0.0,3.0,97,0.15,,-RA,0.76,VWS V14.01,2013-02-07 22:10:00,
2013-02-07 17:15:00,55.6,54.8,30.11,NNE,26,0.0,0.0,97,0.14,,-RA,0.77,VWS V14.01,2013-02-07 22:15:00,
2013-02-07 17:21:00,55.6,54.8,30.10,NW,311,0.0,0.0,97,0.13,,-RA,0.77,VWS V14.01,2013-02-07 22:21:00,
2013-02-07 17:26:00,55.7,54.9,30.10,NW,319,0.0,0.0,97,0.13,,-RA,0.78,VWS V14.01,2013-02-07 22:26:00,
2013-02-07 17:31:00,55.7,54.9,30.10,North,358,0.0,0.0,97,0.12,,-RA,0.78,VWS V14.01,2013-02-07 22:31:00,
2013-02-07 17:36:00,55.7,54.9,30.09,NW,319,0.0,2.0,97,0.12,,-RA,0.79,VWS V14.01,2013-02-07 22:36:00,
2013-02-07 17:41:00,55.7,54.9,30.09,NNW,334,0.0,3.0,97,0.12,,-RA,0.79,VWS V14.01,2013-02-07 22:41:00,
2013-02-07 17:46:00,55.7,54.9,30.09,NNW,333,0.0,0.0,97,0.10,,-RA,0.79,VWS V14.01,2013-02-07 22:46:00,
2013-02-07 17:51:00,55.7,54.9,30.09,North,0,0.0,0.0,97,0.08,,-RA,0.81,VWS V14.01,2013-02-07 22:51:00,
2013-02-07 17:56:00,55.7,54.9,30.09,NE,56,0.0,0.0,97,0.09,,-RA,0.83,VWS V14.01,2013-02-07 22:56:00,
2013-02-07 18:01:00,55.7,54.9,30.08,ESE,110,0.0,0.0,97,0.08,,-RA,0.83,VWS V14.01,2013-02-07 23:01:00,
2013-02-07 18:06:00,55.7,54.9,30.08,North,356,1.0,1.0,97,0.08,,-RA,0.84,VWS V14.01,2013-02-07 23:06:00,
2013-02-07 18:11:00,55.6,54.8,30.08,North,351,0.0,1.0,97,0.10,,-RA,0.86,VWS V14.01,2013-02-07 23:11:00,
2013-02-07 18:16:00,55.6,54.8,30.07,NNE,13,0.0,0.0,97,0.10,,-RA,0.87,VWS V14.01,2013-02-07 23:16:00,
2013-02-07 18:22:00,55.6,54.8,30.07,North,349,3.0,3.0,97,0.11,,-RA,0.88,VWS V14.01,2013-02-07 23:22:00,
2013-02-07 18:27:00,55.4,54.6,30.07,NNW,342,0.0,0.0,97,0.11,,-RA,0.89,VWS V14.01,2013-02-07 23:27:00,
2013-02-07 18:32:00,55.4,54.6,30.06,North,6,0.0,0.0,97,0.12,,-RA,0.90,VWS V14.01,2013-02-07 23:32:00,
2013-02-07 18:37:00,55.3,54.5,30.06,WNW,283,0.0,3.0,97,0.11,,-RA,0.90,VWS V14.01,2013-02-07 23:37:00,
2013-02-07 18:42:00,55.3,54.5,30.06,ENE,76,1.0,1.0,97,0.12,,-RA,0.91,VWS V14.01,2013-02-07 23:42:00,
2013-02-07 18:47:00,55.1,54.3,30.06,ENE,76,0.0,0.0,97,0.14,,-RA,0.93,VWS V14.01,2013-02-07 23:47:00,
2013-02-07 18:52:00,55.1,54.3,30.06,ENE,68,0.0,0.0,97,0.13,,-RA,0.94,VWS V14.01,2013-02-07 23:52:00,
2013-02-07 18:57:00,55.0,54.2,30.06,North,6,0.0,1.0,97,0.13,,-RA,0.96,VWS V14.01,2013-02-07 23:57:00,
2013-02-07 19:02:00,55.0,54.2,30.06,WNW,299,0.0,2.0,97,0.14,, +RA,0.97,VWS V14.01,2013-02-08 00:02:00,
2013-02-07 19:07:00,54.8,54.0,30.06,NNW,337,0.0,0.0,97,0.14,, +RA,0.98,VWS V14.01,2013-02-08 00:07:00,
2013-02-07 19:12:00,54.8,54.0,30.06,NNW,338,0.0,0.0,97,0.12,, +RA,0.98,VWS V14.01,2013-02-08 00:12:00,
2013-02-07 19:17:00,54.8,54.0,30.05,NE,39,0.0,0.0,97,0.11,, +RA,0.98,VWS V14.01,2013-02-08 00:17:00,
2013-02-07 19:22:00,54.8,54.0,30.05,WNW,292,0.0,0.0,97,0.10,, +RA,0.98,VWS V14.01,2013-02-08 00:22:00,
2013-02-07 19:27:00,54.8,54.0,30.05,NE,40,0.0,0.0,97,0.10,, +RA,0.99,VWS V14.01,2013-02-08 00:27:00,
2013-02-07 19:32:00,55.0,54.2,30.03,NW,325,0.0,1.0,97,0.09,, +RA,0.99,VWS V14.01,2013-02-08 00:32:00,
2013-02-07 19:37:00,55.0,54.2,30.03,NW,310,0.0,0.0,97,0.09,, +RA,0.99,VWS V14.01,2013-02-08 00:37:00,
2013-02-07 19:43:00,54.8,54.0,30.03,NW,326,0.0,0.0,97,0.08,, +RA,0.99,VWS V14.01,2013-02-08 00:43:00,
2013-02-07 19:48:00,54.8,54.0,30.02,North,358,0.0,2.0,97,0.06,, +RA,0.99,VWS V14.01,2013-02-08 00:48:00,
2013-02-07 19:53:00,54.8,54.0,30.02,NNE,18,0.0,0.0,97,0.05,, +RA,0.99,VWS V14.01,2013-02-08 00:53:00,
2013-02-07 19:58:00,54.7,53.9,30.02,NNW,340,6.0,9.0,97,0.04,, +RA,1.00,VWS V14.01,2013-02-08 00:58:00,
2013-02-07 20:03:00,54.7,53.9,30.00,NW,305,0.0,5.0,97,0.04,, +RA,1.01,VWS V14.01,2013-02-08 01:03:00,
2013-02-07 20:08:00,54.7,53.9,30.00,North,5,5.0,5.0,97,0.04,, +RA,1.02,VWS V14.01,2013-02-08 01:08:00,
2013-02-07 20:13:00,54.7,53.9,30.00,NNW,333,0.0,0.0,97,0.06,, +RA,1.04,VWS V14.01,2013-02-08 01:13:00,
2013-02-07 20:18:00,54.7,53.9,30.00,NNE,15,0.0,3.0,97,0.07,, +RA,1.05,VWS V14.01,2013-02-08 01:18:00,
2013-02-07 20:23:00,54.7,53.9,30.00,NE,54,0.0,2.0,97,0.07,, +RA,1.05,VWS V14.01,2013-02-08 01:23:00,
2013-02-07 20:28:00,54.7,53.9,30.00,South,184,0.0,0.0,97,0.06,, +RA,1.05,VWS V14.01,2013-02-08 01:28:00,
2013-02-07 20:33:00,54.7,53.9,30.00,NNW,345,0.0,0.0,97,0.07,, +RA,1.06,VWS V14.01,2013-02-08 01:33:00,
2013-02-07 20:38:00,54.8,54.0,30.00,NNW,336,0.0,0.0,97,0.12,, +RA,1.11,VWS V14.01,2013-02-08 01:38:00,
2013-02-07 20:43:00,54.8,54.0,30.00,NW,319,0.0,0.0,97,0.13,, +RA,1.12,VWS V14.01,2013-02-08 01:43:00,
2013-02-07 20:48:00,54.8,54.0,30.00,NNE,30,0.0,0.0,97,0.13,, +RA,1.12,VWS V14.01,2013-02-08 01:48:00,
2013-02-07 20:53:00,55.0,54.2,30.00,North,354,0.0,0.0,97,0.15,, +RA,1.14,VWS V14.01,2013-02-08 01:53:00,
2013-02-07 20:58:00,55.0,54.2,30.00,ENE,59,0.0,0.0,97,0.14,, +RA,1.14,VWS V14.01,2013-02-08 01:58:00,
2013-02-07 21:03:00,55.0,54.2,29.99,ENE,60,0.0,0.0,97,0.14,,RA,1.15,VWS V14.01,2013-02-08 02:03:00,
2013-02-07 21:08:00,55.0,54.2,29.99,NNE,20,0.0,0.0,97,0.14,,RA,1.16,VWS V14.01,2013-02-08 02:08:00,
2013-02-07 21:14:00,55.0,54.2,29.99,NNE,20,0.0,0.0,97,0.13,,RA,1.17,VWS V14.01,2013-02-08 02:14:00,
2013-02-07 21:19:00,55.0,54.2,29.97,NNE,20,0.0,0.0,97,0.13,,RA,1.18,VWS V14.01,2013-02-08 02:19:00,
2013-02-07 21:24:00,55.0,54.2,29.97,NNE,20,0.0,0.0,97,0.15,,RA,1.20,VWS V14.01,2013-02-08 02:24:00,
2013-02-07 21:29:00,55.0,54.2,29.97,NNE,20,0.0,0.0,97,0.16,,RA,1.21,VWS V14.01,2013-02-08 02:29:00,
2013-02-07 21:34:00,55.0,54.2,29.96,NNE,21,0.0,0.0,97,0.16,,RA,1.22,VWS V14.01,2013-02-08 02:34:00,
2013-02-07 21:39:00,55.1,54.5,29.96,NNE,21,0.0,0.0,98,0.12,,RA,1.23,VWS V14.01,2013-02-08 02:39:00,
2013-02-07 21:44:00,55.1,54.5,29.96,NNE,15,0.0,0.0,98,0.14,,RA,1.26,VWS V14.01,2013-02-08 02:44:00,
2013-02-07 21:49:00,55.3,54.8,29.96,NNE,14,0.0,0.0,98,0.16,,RA,1.28,VWS V14.01,2013-02-08 02:49:00,
2013-02-07 21:54:00,55.3,54.8,29.96,WNW,302,0.0,0.0,98,0.16,,RA,1.30,VWS V14.01,2013-02-08 02:54:00,
2013-02-07 21:59:00,55.4,54.8,29.96,WNW,302,0.0,0.0,98,0.17,,RA,1.31,VWS V14.01,2013-02-08 02:59:00,
2013-02-07 22:04:00,55.4,54.8,29.94,WNW,302,0.0,0.0,98,0.18,, +RA,1.33,VWS V14.01,2013-02-08 03:04:00,
2013-02-07 22:09:00,55.4,54.8,29.94,WNW,302,0.0,0.0,98,0.24,, +RA,1.40,VWS V14.01,2013-02-08 03:09:00,
2013-02-07 22:14:00,55.4,54.8,29.94,WNW,302,0.0,0.0,98,0.31,, +RA,1.48,VWS V14.01,2013-02-08 03:14:00,
2013-02-07 22:19:00,55.6,55.0,29.93,North,10,0.0,1.0,98,0.32,, +RA,1.50,VWS V14.01,2013-02-08 03:19:00,
2013-02-07 22:24:00,55.6,55.0,29.93,NE,54,0.0,0.0,98,0.34,, +RA,1.54,VWS V14.01,2013-02-08 03:24:00,
2013-02-07 22:29:00,55.6,55.0,29.93,NE,54,0.0,0.0,98,0.34,, +RA,1.55,VWS V14.01,2013-02-08 03:29:00,
2013-02-07 22:34:00,55.7,55.2,29.94,South,177,0.0,0.0,98,0.35,, +RA,1.57,VWS V14.01,2013-02-08 03:34:00,
2013-02-07 22:40:00,55.7,55.2,29.94,WNW,287,0.0,1.0,98,0.34,, +RA,1.57,VWS V14.01,2013-02-08 03:40:00,
2013-02-07 22:45:00,55.7,55.2,29.94,WNW,287,0.0,0.0,98,0.32,, +RA,1.58,VWS V14.01,2013-02-08 03:45:00,
2013-02-07 22:50:00,55.7,55.2,29.91,WNW,287,0.0,0.0,98,0.30,, +RA,1.58,VWS V14.01,2013-02-08 03:50:00,
2013-02-07 22:55:00,55.7,55.2,29.91,ENE,57,0.0,0.0,98,0.29,, +RA,1.59,VWS V14.01,2013-02-08 03:55:00,
2013-02-07 23:00:00,55.7,55.2,29.91,ENE,57,0.0,0.0,98,0.29,, +RA,1.60,VWS V14.01,2013-02-08 04:00:00,
2013-02-07 23:05:00,55.7,55.2,29.89,ENE,57,0.0,0.0,98,0.29,, +RA,1.62,VWS V14.01,2013-02-08 04:05:00,
2013-02-07 23:10:00,55.9,55.3,29.89,ENE,57,0.0,0.0,98,0.24,, +RA,1.65,VWS V14.01,2013-02-08 04:10:00,
2013-02-07 23:15:00,55.9,55.3,29.89,ENE,57,0.0,0.0,98,0.17,, +RA,1.66,VWS V14.01,2013-02-08 04:15:00,
2013-02-07 23:20:00,55.9,55.3,29.87,ENE,57,0.0,1.0,98,0.17,, +RA,1.68,VWS V14.01,2013-02-08 04:20:00,
2013-02-07 23:26:00,55.9,55.3,29.87,ENE,57,0.0,0.0,98,0.15,, +RA,1.69,VWS V14.01,2013-02-08 04:26:00,
2013-02-07 23:31:00,56.0,55.5,29.87,ENE,57,0.0,0.0,98,0.13,,RA,1.69,VWS V14.01,2013-02-08 04:31:00,
2013-02-07 23:36:00,56.0,55.5,29.86,ENE,57,0.0,0.0,98,0.12,,RA,1.69,VWS V14.01,2013-02-08 04:36:00,
2013-02-07 23:41:00,56.0,55.5,29.86,NE,48,0.0,0.0,98,0.12,,RA,1.69,VWS V14.01,2013-02-08 04:41:00,
2013-02-07 23:46:00,56.0,55.5,29.86,NE,48,0.0,0.0,98,0.12,,RA,1.70,VWS V14.01,2013-02-08 04:46:00,
2013-02-07 23:51:00,56.0,55.5,29.86,NE,48,0.0,0.0,98,0.12,,RA,1.70,VWS V14.01,2013-02-08 04:51:00,
2013-02-07 23:56:00,56.0,55.5,29.86,NE,48,0.0,0.0,98,0.11,,RA,1.70,VWS V14.01,2013-02-08 04:56:00,